Hourly Data Report for March 14, 2013

RANKIN INLET A
NUNAVUT

62°48'38.000" N
92°06'53.000" W
32.30 m
2303405
71083
YRT

Download Data

Hourly Data (March 2013)
Hourly Data Report for March 14, 2013
TIME
LST
Temp Definition
°C
Dew Point Definition
°C
Rel Hum Definition
%
Precip. Amount Definition
mm

Wind Dir Definition
10's deg

Wind Spd Definition
km/h
Visibility Definition
km
Stn Press Definition
kPa
Hmdx Definition


Wind Chill Definition


Weather Definition


00:00 -24.9 -28.3 74   9 13 9.7 101.83   -34 Snow,Blowing Snow
01:00 -24.3 -27.7 74   10 15 9.7 101.78   -34 Snow,Blowing Snow
02:00 -24.7 -28.1 74   8 14 6.4 101.71   -35 Snow,Blowing Snow
03:00 -25.2 -28.7 73   7 15 16.1 101.65   -35 Snow,Blowing Snow
04:00 -25.0 -28.4 74   7 14 12.9 101.60   -35 Snow,Blowing Snow
05:00 -25.5 -29.0 73   5 13 12.9 101.59   -35 Snow,Blowing Snow
06:00 -26.0 -29.5 73   5 13 12.9 101.55   -36 Snow,Blowing Snow
07:00 -25.3 -28.8 73   6 13 12.9 101.53   -35 Snow
08:00 -24.9 -28.4 73   6 13 12.9 101.49   -34 Snow
09:00 -25.8 -29.6 71   36 13 16.1 101.47   -35 Snow
10:00 -27.3 -31.4 69   34 23 12.9 101.48   -41 Ice Crystals,Blowing Snow
11:00 -27.1 -31.3 68   34 26 12.9 101.47   -41 Ice Crystals,Blowing Snow
12:00 -26.9 -31.2 68   33 30 16.1 101.47   -42 Ice Crystals,Blowing Snow
13:00 -26.6 -30.9 68   34 31 12.9 101.48   -41 Ice Crystals,Blowing Snow
14:00 -26.8 -31.1 68   33 31 16.1 101.52   -42 Ice Crystals,Blowing Snow
15:00 -27.2 -31.3 69   33 31 16.1 101.57   -42 Ice Crystals,Blowing Snow
16:00 -27.9 -32.0 69   33 33 12.9 101.61   -43 Ice Crystals,Blowing Snow
17:00 -29.7 -33.7 69   33 35 8.1 101.64   -46 Ice Crystals,Blowing Snow
18:00 -31.3 -35.4 68   34 35 8.1 101.65   -48 Ice Crystals,Blowing Snow
19:00 -32.0 -36.1 68   33 33 8.1 101.65   -49 Ice Crystals,Blowing Snow
20:00 -33.1 -37.3 67   33 32 8.1 101.65   -50 Ice Crystals,Blowing Snow
21:00 -33.7 -37.9 67   33 32 8.1 101.62   -51 Ice Crystals,Blowing Snow
22:00 -34.5 -38.6 67   34 29 8.1 101.61   -51 Ice Crystals,Blowing Snow
23:00 -35.2 -39.5 66   34 28 9.7 101.56   -52 Ice Crystals,Blowing Snow

Notes on Data Quality.

Legend

  • E = Estimated
  • M = Missing
  • NA = Not Available*
  • [empty] = Indicates an unobserved value
Date modified: